Погода в Зеленограде

Россия / Московская область     55°59′30″N   37°12′51″E
темп.,
°C
ветер,
м/с
пор.,
м/с
влажн.,
%
обл.,
%
осадки,
мм/ч
давл.,
гПа
погр.,
м
7 мая, пт
пт700:00+6юз51290100 0.0 1007635
03:00+5юз41091100 0.0 1008470
06:00+4юз31094100 0.0 1009401
09:00+8зюз46634 0.0 1010967
12:00+12зюз584158 0.1 10112382
15:00+13зюз5941100 0.1 10112495
18:00+12юз585173 0.1 10111486
21:00+8ю3664100 0.1 101290
8 мая, сб
сб800:00+7ю41366100 0.0 1011332
03:00+8ююв51464100 0.0 1010562
06:00+7ююв71593100 4.1 10081189
09:00+7ююв71495100 11.1 10071057
12:00+8ююв51196100 2.1 1005770
15:00+8юв4797100 6.4 1004417
18:00+8в1199100 3.3 100336
21:00+7сз4996100 4.3 1003584
9 мая, вс
вс900:00+5ссз71295100 3.1 1005862
03:00+4сз71291100 6.1 1007908
06:00+3сз61290100 0.1 1011917
09:00+5сз7108182 0.2 10131065
12:00+7сз696456 0.1 10161353
15:00+11сз7941100 0.1 10172405
18:00+10сз58515 0.0 10191800
21:00+5сз34714 0.0 102355
10 мая, пн
пн1000:00+4сз35765 0.0 102582
03:00+3сз33735 0.0 102743
06:00+4зсз12695 0.0 102938
09:00+10зюз23505 0.0 1030489
12:00+14зюз344023 0.0 10291638
15:00+15зюз23405 0.0 10291661
18:00+15зюз23526 0.0 1029870
21:00+9з22711 0.0 103011
11 мая, вт
вт1100:00+8ссз00755 0.0 103110
03:00+7юв017732 0.0 103210
06:00+8юв11745 0.0 103215
09:00+14юв225356 0.0 1032426
12:00+17юв3448100 0.0 1032950
15:00+18в2347100 0.0 10301221
18:00+17в2461100 0.0 1030239
21:00+12в3376100 0.0 103041